<?xml version="1.0" encoding="UTF-8" standalone="no" ?>
<gpx xmlns="http://www.topografix.com/GPX/1/1" xmlns:xsi="http://www.w3.org/2001/XMLSchema-instance" xsi:schemaLocation="http://www.topografix.com/GPX/1/1 http://www.topografix.com/GPX/1/1/gpx.xsd" version="1.1" creator="VisuGPX - https://www.visugpx.com">
  <metadata>
    <name>Traversée des hautes alpes 4/7 </name>
    <desc><![CDATA[Traversée de hautes alpes 4/7 : Mizoen à Montrond ou de la Meije au Buech.]]></desc>
  </metadata>
  <trk>
    <name><![CDATA[track]]></name>
    <trkseg>
      <trkpt lat="44.75351" lon="6.53801">
        <ele>1202</ele>
        <time>2009-11-18T18:47:38Z</time>
      </trkpt>
      <trkpt lat="44.75355" lon="6.53772">
        <ele>1206</ele>
        <time>2009-11-23T07:24:21Z</time>
      </trkpt>
      <trkpt lat="44.75413" lon="6.53729">
        <ele>1217</ele>
        <time>2009-11-23T07:24:21Z</time>
      </trkpt>
      <trkpt lat="44.75405" lon="6.53694">
        <ele>1216</ele>
        <time>2009-11-23T07:24:21Z</time>
      </trkpt>
      <trkpt lat="44.75367" lon="6.53612">
        <ele>1208</ele>
        <time>2009-11-23T07:24:21Z</time>
      </trkpt>
      <trkpt lat="44.75343" lon="6.53493">
        <ele>1201</ele>
        <time>2009-11-23T07:24:21Z</time>
      </trkpt>
      <trkpt lat="44.75342" lon="6.53398">
        <ele>1199</ele>
        <time>2009-11-23T07:24:21Z</time>
      </trkpt>
      <trkpt lat="44.75243" lon="6.5322">
        <ele>1179</ele>
        <time>2009-11-23T07:24:21Z</time>
      </trkpt>
      <trkpt lat="44.75189" lon="6.52929">
        <ele>1185</ele>
        <time>2009-11-23T07:24:21Z</time>
      </trkpt>
      <trkpt lat="44.75153" lon="6.52929">
        <ele>1187</ele>
        <time>2009-11-23T07:24:21Z</time>
      </trkpt>
      <trkpt lat="44.75125" lon="6.53012">
        <ele>1190</ele>
        <time>2009-11-23T07:24:21Z</time>
      </trkpt>
      <trkpt lat="44.7509" lon="6.53143">
        <ele>1198</ele>
        <time>2009-11-23T07:24:21Z</time>
      </trkpt>
      <trkpt lat="44.75042" lon="6.53218">
        <ele>1217</ele>
        <time>2009-11-23T07:24:21Z</time>
      </trkpt>
      <trkpt lat="44.75036" lon="6.53325">
        <ele>1221</ele>
        <time>2009-11-23T07:24:21Z</time>
      </trkpt>
      <trkpt lat="44.74987" lon="6.53432">
        <ele>1231</ele>
        <time>2009-11-23T07:24:21Z</time>
      </trkpt>
      <trkpt lat="44.74923" lon="6.53468">
        <ele>1260</ele>
        <time>2009-11-23T07:24:21Z</time>
      </trkpt>
      <trkpt lat="44.74889" lon="6.53573">
        <ele>1269</ele>
        <time>2009-11-23T07:24:21Z</time>
      </trkpt>
      <trkpt lat="44.7489" lon="6.53662">
        <ele>1270</ele>
        <time>2009-11-23T07:24:21Z</time>
      </trkpt>
      <trkpt lat="44.74868" lon="6.53723">
        <ele>1281</ele>
        <time>2009-11-23T07:24:21Z</time>
      </trkpt>
      <trkpt lat="44.74835" lon="6.53923">
        <ele>1285</ele>
        <time>2009-11-23T07:24:21Z</time>
      </trkpt>
      <trkpt lat="44.74822" lon="6.53865">
        <ele>1297</ele>
        <time>2009-11-23T07:24:21Z</time>
      </trkpt>
      <trkpt lat="44.74817" lon="6.5376">
        <ele>1305</ele>
        <time>2009-11-23T07:24:21Z</time>
      </trkpt>
      <trkpt lat="44.74805" lon="6.53662">
        <ele>1314</ele>
        <time>2009-11-23T07:24:21Z</time>
      </trkpt>
      <trkpt lat="44.74779" lon="6.53568">
        <ele>1331</ele>
        <time>2009-11-23T07:24:21Z</time>
      </trkpt>
      <trkpt lat="44.74764" lon="6.53507">
        <ele>1342</ele>
        <time>2009-11-23T07:24:21Z</time>
      </trkpt>
      <trkpt lat="44.74767" lon="6.53463">
        <ele>1343</ele>
        <time>2009-11-23T07:24:21Z</time>
      </trkpt>
      <trkpt lat="44.74798" lon="6.53437">
        <ele>1332</ele>
        <time>2009-11-23T07:24:21Z</time>
      </trkpt>
      <trkpt lat="44.74804" lon="6.53203">
        <ele>1350</ele>
        <time>2009-11-23T07:24:21Z</time>
      </trkpt>
      <trkpt lat="44.74759" lon="6.53282">
        <ele>1372</ele>
        <time>2009-11-23T07:24:21Z</time>
      </trkpt>
      <trkpt lat="44.74715" lon="6.53361">
        <ele>1379</ele>
        <time>2009-11-23T07:24:21Z</time>
      </trkpt>
      <trkpt lat="44.74685" lon="6.5351">
        <ele>1384</ele>
        <time>2009-11-23T07:24:21Z</time>
      </trkpt>
      <trkpt lat="44.74669" lon="6.53459">
        <ele>1395</ele>
        <time>2009-11-23T07:24:21Z</time>
      </trkpt>
      <trkpt lat="44.74647" lon="6.53381">
        <ele>1407</ele>
        <time>2009-11-23T07:24:21Z</time>
      </trkpt>
      <trkpt lat="44.74667" lon="6.53326">
        <ele>1398</ele>
        <time>2009-11-23T07:24:21Z</time>
      </trkpt>
      <trkpt lat="44.74646" lon="6.53223">
        <ele>1421</ele>
        <time>2009-11-23T07:24:21Z</time>
      </trkpt>
      <trkpt lat="44.74655" lon="6.53154">
        <ele>1423</ele>
        <time>2009-11-23T07:24:21Z</time>
      </trkpt>
      <trkpt lat="44.74642" lon="6.5309">
        <ele>1429</ele>
        <time>2009-11-23T07:24:21Z</time>
      </trkpt>
      <trkpt lat="44.7463" lon="6.53102">
        <ele>1433</ele>
        <time>2009-11-23T07:24:21Z</time>
      </trkpt>
      <trkpt lat="44.74628" lon="6.53168">
        <ele>1432</ele>
        <time>2009-11-23T07:24:21Z</time>
      </trkpt>
      <trkpt lat="44.74594" lon="6.53219">
        <ele>1441</ele>
        <time>2009-11-23T07:24:21Z</time>
      </trkpt>
      <trkpt lat="44.74586" lon="6.53193">
        <ele>1445</ele>
        <time>2009-11-23T07:24:21Z</time>
      </trkpt>
      <trkpt lat="44.7459" lon="6.53153">
        <ele>1447</ele>
        <time>2009-11-23T07:24:21Z</time>
      </trkpt>
      <trkpt lat="44.74569" lon="6.53104">
        <ele>1456</ele>
        <time>2009-11-23T07:24:21Z</time>
      </trkpt>
      <trkpt lat="44.74542" lon="6.5306">
        <ele>1466</ele>
        <time>2009-11-23T07:24:21Z</time>
      </trkpt>
      <trkpt lat="44.74548" lon="6.53137">
        <ele>1463</ele>
        <time>2009-11-23T07:24:21Z</time>
      </trkpt>
      <trkpt lat="44.7453" lon="6.53183">
        <ele>1471</ele>
        <time>2009-11-23T07:24:21Z</time>
      </trkpt>
      <trkpt lat="44.74515" lon="6.53115">
        <ele>1476</ele>
        <time>2009-11-23T07:24:21Z</time>
      </trkpt>
      <trkpt lat="44.74498" lon="6.53086">
        <ele>1484</ele>
        <time>2009-11-23T07:24:21Z</time>
      </trkpt>
      <trkpt lat="44.74514" lon="6.53014">
        <ele>1480</ele>
        <time>2009-11-23T07:24:21Z</time>
      </trkpt>
      <trkpt lat="44.74481" lon="6.52948">
        <ele>1497</ele>
        <time>2009-11-23T07:24:21Z</time>
      </trkpt>
      <trkpt lat="44.7449" lon="6.52889">
        <ele>1494</ele>
        <time>2009-11-23T07:24:21Z</time>
      </trkpt>
      <trkpt lat="44.74536" lon="6.52795">
        <ele>1494</ele>
        <time>2009-11-23T07:24:21Z</time>
      </trkpt>
      <trkpt lat="44.74563" lon="6.52733">
        <ele>1500</ele>
        <time>2009-11-23T07:24:21Z</time>
      </trkpt>
      <trkpt lat="44.7459" lon="6.52672">
        <ele>1505</ele>
        <time>2009-11-23T07:24:21Z</time>
      </trkpt>
      <trkpt lat="44.7453" lon="6.52712">
        <ele>1516</ele>
        <time>2009-11-23T07:24:21Z</time>
      </trkpt>
      <trkpt lat="44.74478" lon="6.52721">
        <ele>1529</ele>
        <time>2009-11-23T07:24:21Z</time>
      </trkpt>
      <trkpt lat="44.74425" lon="6.52808">
        <ele>1539</ele>
        <time>2009-11-23T07:24:21Z</time>
      </trkpt>
      <trkpt lat="44.74482" lon="6.52633">
        <ele>1550</ele>
        <time>2009-11-23T07:24:21Z</time>
      </trkpt>
      <trkpt lat="44.74549" lon="6.52565">
        <ele>1565</ele>
        <time>2009-11-23T07:24:21Z</time>
      </trkpt>
      <trkpt lat="44.74591" lon="6.52483">
        <ele>1565</ele>
        <time>2009-11-23T07:24:21Z</time>
      </trkpt>
      <trkpt lat="44.74563" lon="6.525">
        <ele>1578</ele>
        <time>2009-11-23T07:24:21Z</time>
      </trkpt>
      <trkpt lat="44.74498" lon="6.52552">
        <ele>1576</ele>
        <time>2009-11-23T07:24:21Z</time>
      </trkpt>
      <trkpt lat="44.74541" lon="6.52495">
        <ele>1588</ele>
        <time>2009-11-23T07:24:21Z</time>
      </trkpt>
      <trkpt lat="44.74574" lon="6.52387">
        <ele>1593</ele>
        <time>2009-11-23T07:24:21Z</time>
      </trkpt>
      <trkpt lat="44.74528" lon="6.52478">
        <ele>1597</ele>
        <time>2009-11-23T07:24:21Z</time>
      </trkpt>
      <trkpt lat="44.74526" lon="6.52424">
        <ele>1615</ele>
        <time>2009-11-23T07:24:21Z</time>
      </trkpt>
      <trkpt lat="44.74486" lon="6.52469">
        <ele>1614</ele>
        <time>2009-11-23T07:24:21Z</time>
      </trkpt>
      <trkpt lat="44.74529" lon="6.52342">
        <ele>1632</ele>
        <time>2009-11-23T07:24:21Z</time>
      </trkpt>
      <trkpt lat="44.74484" lon="6.52399">
        <ele>1638</ele>
        <time>2009-11-23T07:24:21Z</time>
      </trkpt>
      <trkpt lat="44.74496" lon="6.52311">
        <ele>1657</ele>
        <time>2009-11-23T07:24:21Z</time>
      </trkpt>
      <trkpt lat="44.74428" lon="6.5243">
        <ele>1646</ele>
        <time>2009-11-23T07:24:21Z</time>
      </trkpt>
      <trkpt lat="44.74299" lon="6.52467">
        <ele>1674</ele>
        <time>2009-11-23T07:24:21Z</time>
      </trkpt>
      <trkpt lat="44.74261" lon="6.52512">
        <ele>1679</ele>
        <time>2009-11-23T07:24:21Z</time>
      </trkpt>
      <trkpt lat="44.7424" lon="6.5258">
        <ele>1680</ele>
        <time>2009-11-23T07:24:21Z</time>
      </trkpt>
      <trkpt lat="44.74176" lon="6.52682">
        <ele>1681</ele>
        <time>2009-11-23T07:24:21Z</time>
      </trkpt>
      <trkpt lat="44.74158" lon="6.52722">
        <ele>1674</ele>
        <time>2009-11-23T07:24:21Z</time>
      </trkpt>
      <trkpt lat="44.74105" lon="6.52765">
        <ele>1697</ele>
        <time>2009-11-23T07:24:21Z</time>
      </trkpt>
      <trkpt lat="44.74121" lon="6.52814">
        <ele>1689</ele>
        <time>2009-11-23T07:24:21Z</time>
      </trkpt>
      <trkpt lat="44.74153" lon="6.52933">
        <ele>1672</ele>
        <time>2009-11-23T07:24:21Z</time>
      </trkpt>
      <trkpt lat="44.74147" lon="6.52971">
        <ele>1676</ele>
        <time>2009-11-23T07:24:21Z</time>
      </trkpt>
      <trkpt lat="44.74206" lon="6.53196">
        <ele>1666</ele>
        <time>2009-11-23T07:24:21Z</time>
      </trkpt>
      <trkpt lat="44.74211" lon="6.53238">
        <ele>1670</ele>
        <time>2009-11-23T07:24:21Z</time>
      </trkpt>
      <trkpt lat="44.74234" lon="6.53268">
        <ele>1661</ele>
        <time>2009-11-23T07:24:21Z</time>
      </trkpt>
      <trkpt lat="44.74244" lon="6.53322">
        <ele>1670</ele>
        <time>2009-11-23T07:24:21Z</time>
      </trkpt>
      <trkpt lat="44.74301" lon="6.53415">
        <ele>1669</ele>
        <time>2009-11-23T07:24:21Z</time>
      </trkpt>
      <trkpt lat="44.74343" lon="6.53437">
        <ele>1648</ele>
        <time>2009-11-23T07:24:21Z</time>
      </trkpt>
      <trkpt lat="44.74366" lon="6.536">
        <ele>1629</ele>
        <time>2009-11-23T07:24:21Z</time>
      </trkpt>
      <trkpt lat="44.74348" lon="6.53653">
        <ele>1630</ele>
        <time>2009-11-23T07:24:21Z</time>
      </trkpt>
      <trkpt lat="44.74306" lon="6.53687">
        <ele>1642</ele>
        <time>2009-11-23T07:24:21Z</time>
      </trkpt>
      <trkpt lat="44.74309" lon="6.53849">
        <ele>1628</ele>
        <time>2009-11-23T07:24:21Z</time>
      </trkpt>
      <trkpt lat="44.74251" lon="6.53961">
        <ele>1633</ele>
        <time>2009-11-23T07:24:21Z</time>
      </trkpt>
      <trkpt lat="44.74234" lon="6.54045">
        <ele>1628</ele>
        <time>2009-11-23T07:24:21Z</time>
      </trkpt>
      <trkpt lat="44.74208" lon="6.54027">
        <ele>1633</ele>
        <time>2009-11-23T07:24:21Z</time>
      </trkpt>
      <trkpt lat="44.74137" lon="6.54057">
        <ele>1635</ele>
        <time>2009-11-23T07:24:21Z</time>
      </trkpt>
      <trkpt lat="44.74052" lon="6.54101">
        <ele>1638</ele>
        <time>2009-11-23T07:24:21Z</time>
      </trkpt>
      <trkpt lat="44.73949" lon="6.54147">
        <ele>1647</ele>
        <time>2009-11-23T07:24:21Z</time>
      </trkpt>
      <trkpt lat="44.73974" lon="6.54083">
        <ele>1657</ele>
        <time>2009-11-23T07:24:21Z</time>
      </trkpt>
      <trkpt lat="44.73912" lon="6.54043">
        <ele>1670</ele>
        <time>2009-11-23T07:24:21Z</time>
      </trkpt>
      <trkpt lat="44.73883" lon="6.53981">
        <ele>1688</ele>
        <time>2009-11-23T07:24:21Z</time>
      </trkpt>
      <trkpt lat="44.73842" lon="6.53946">
        <ele>1699</ele>
        <time>2009-11-23T07:24:21Z</time>
      </trkpt>
      <trkpt lat="44.73804" lon="6.53991">
        <ele>1687</ele>
        <time>2009-11-23T07:24:21Z</time>
      </trkpt>
      <trkpt lat="44.73778" lon="6.54077">
        <ele>1671</ele>
        <time>2009-11-23T07:24:21Z</time>
      </trkpt>
      <trkpt lat="44.73757" lon="6.54158">
        <ele>1661</ele>
        <time>2009-11-23T07:24:21Z</time>
      </trkpt>
      <trkpt lat="44.73711" lon="6.54189">
        <ele>1654</ele>
        <time>2009-11-23T07:24:21Z</time>
      </trkpt>
      <trkpt lat="44.73724" lon="6.54206">
        <ele>1650</ele>
        <time>2009-11-23T07:24:21Z</time>
      </trkpt>
      <trkpt lat="44.73633" lon="6.54228">
        <ele>1639</ele>
        <time>2009-11-23T07:24:21Z</time>
      </trkpt>
      <trkpt lat="44.73528" lon="6.54267">
        <ele>1618</ele>
        <time>2009-11-23T07:24:21Z</time>
      </trkpt>
      <trkpt lat="44.73482" lon="6.54283">
        <ele>1616</ele>
        <time>2009-11-23T07:24:21Z</time>
      </trkpt>
      <trkpt lat="44.73418" lon="6.54379">
        <ele>1607</ele>
        <time>2009-11-23T07:24:21Z</time>
      </trkpt>
      <trkpt lat="44.73306" lon="6.54402">
        <ele>1606</ele>
        <time>2009-11-23T07:24:21Z</time>
      </trkpt>
      <trkpt lat="44.73271" lon="6.54431">
        <ele>1601</ele>
        <time>2009-11-23T07:24:21Z</time>
      </trkpt>
      <trkpt lat="44.73247" lon="6.54473">
        <ele>1598</ele>
        <time>2009-11-23T07:24:21Z</time>
      </trkpt>
      <trkpt lat="44.73266" lon="6.54633">
        <ele>1563</ele>
        <time>2009-11-23T07:24:21Z</time>
      </trkpt>
      <trkpt lat="44.73186" lon="6.54709">
        <ele>1542</ele>
        <time>2009-11-23T07:24:21Z</time>
      </trkpt>
      <trkpt lat="44.7311" lon="6.5483">
        <ele>1540</ele>
        <time>2009-11-23T07:24:21Z</time>
      </trkpt>
      <trkpt lat="44.73053" lon="6.54948">
        <ele>1534</ele>
        <time>2009-11-23T07:24:21Z</time>
      </trkpt>
      <trkpt lat="44.72987" lon="6.55029">
        <ele>1519</ele>
        <time>2009-11-23T07:24:21Z</time>
      </trkpt>
      <trkpt lat="44.72961" lon="6.55131">
        <ele>1517</ele>
        <time>2009-11-23T07:24:21Z</time>
      </trkpt>
      <trkpt lat="44.72986" lon="6.55367">
        <ele>1488</ele>
        <time>2009-11-23T07:24:21Z</time>
      </trkpt>
      <trkpt lat="44.73023" lon="6.55392">
        <ele>1475</ele>
        <time>2009-11-23T07:24:21Z</time>
      </trkpt>
      <trkpt lat="44.73037" lon="6.55377">
        <ele>1474</ele>
        <time>2009-11-23T07:24:21Z</time>
      </trkpt>
      <trkpt lat="44.73041" lon="6.55576">
        <ele>1454</ele>
        <time>2009-11-23T07:24:21Z</time>
      </trkpt>
      <trkpt lat="44.7297" lon="6.55647">
        <ele>1445</ele>
        <time>2009-11-23T07:24:21Z</time>
      </trkpt>
      <trkpt lat="44.72883" lon="6.55703">
        <ele>1440</ele>
        <time>2009-11-23T07:24:21Z</time>
      </trkpt>
      <trkpt lat="44.72823" lon="6.55733">
        <ele>1452</ele>
        <time>2009-11-23T07:24:21Z</time>
      </trkpt>
      <trkpt lat="44.7276" lon="6.55839">
        <ele>1450</ele>
        <time>2009-11-23T07:24:21Z</time>
      </trkpt>
      <trkpt lat="44.72725" lon="6.5583">
        <ele>1459</ele>
        <time>2009-11-23T07:24:21Z</time>
      </trkpt>
      <trkpt lat="44.72692" lon="6.55853">
        <ele>1459</ele>
        <time>2009-11-23T07:24:21Z</time>
      </trkpt>
      <trkpt lat="44.72621" lon="6.55848">
        <ele>1470</ele>
        <time>2009-11-23T07:24:21Z</time>
      </trkpt>
      <trkpt lat="44.72682" lon="6.55761">
        <ele>1481</ele>
        <time>2009-11-23T07:24:21Z</time>
      </trkpt>
      <trkpt lat="44.72456" lon="6.55785">
        <ele>1504</ele>
        <time>2009-11-23T07:24:21Z</time>
      </trkpt>
      <trkpt lat="44.72394" lon="6.55831">
        <ele>1502</ele>
        <time>2009-11-23T07:24:21Z</time>
      </trkpt>
      <trkpt lat="44.72307" lon="6.55928">
        <ele>1522</ele>
        <time>2009-11-23T07:24:21Z</time>
      </trkpt>
      <trkpt lat="44.72271" lon="6.56023">
        <ele>1514</ele>
        <time>2009-11-23T07:24:21Z</time>
      </trkpt>
      <trkpt lat="44.72217" lon="6.56098">
        <ele>1518</ele>
        <time>2009-11-23T07:24:21Z</time>
      </trkpt>
      <trkpt lat="44.72143" lon="6.56197">
        <ele>1525</ele>
        <time>2009-11-23T07:24:21Z</time>
      </trkpt>
      <trkpt lat="44.72048" lon="6.56278">
        <ele>1527</ele>
        <time>2009-11-23T07:24:21Z</time>
      </trkpt>
      <trkpt lat="44.71975" lon="6.56361">
        <ele>1524</ele>
        <time>2009-11-23T07:24:21Z</time>
      </trkpt>
      <trkpt lat="44.71927" lon="6.5643">
        <ele>1516</ele>
        <time>2009-11-23T07:24:21Z</time>
      </trkpt>
      <trkpt lat="44.71898" lon="6.56491">
        <ele>1507</ele>
        <time>2009-11-23T07:24:21Z</time>
      </trkpt>
      <trkpt lat="44.71899" lon="6.56516">
        <ele>1500</ele>
        <time>2009-11-23T07:24:21Z</time>
      </trkpt>
      <trkpt lat="44.71921" lon="6.56531">
        <ele>1491</ele>
        <time>2009-11-23T07:24:21Z</time>
      </trkpt>
      <trkpt lat="44.71959" lon="6.56527">
        <ele>1478</ele>
        <time>2009-11-23T07:24:21Z</time>
      </trkpt>
      <trkpt lat="44.7198" lon="6.56529">
        <ele>1471</ele>
        <time>2009-11-23T07:24:21Z</time>
      </trkpt>
      <trkpt lat="44.71983" lon="6.56554">
        <ele>1464</ele>
        <time>2009-11-23T07:24:21Z</time>
      </trkpt>
      <trkpt lat="44.71968" lon="6.56585">
        <ele>1460</ele>
        <time>2009-11-23T07:24:21Z</time>
      </trkpt>
      <trkpt lat="44.71958" lon="6.56622">
        <ele>1449</ele>
        <time>2009-11-23T07:24:21Z</time>
      </trkpt>
      <trkpt lat="44.72008" lon="6.56613">
        <ele>1440</ele>
        <time>2009-11-23T07:24:21Z</time>
      </trkpt>
      <trkpt lat="44.72035" lon="6.56618">
        <ele>1431</ele>
        <time>2009-11-23T07:24:21Z</time>
      </trkpt>
      <trkpt lat="44.72022" lon="6.56658">
        <ele>1418</ele>
        <time>2009-11-23T07:24:21Z</time>
      </trkpt>
      <trkpt lat="44.71996" lon="6.56694">
        <ele>1410</ele>
        <time>2009-11-23T07:24:21Z</time>
      </trkpt>
      <trkpt lat="44.71962" lon="6.56704">
        <ele>1412</ele>
        <time>2009-11-23T07:24:21Z</time>
      </trkpt>
      <trkpt lat="44.71916" lon="6.56714">
        <ele>1413</ele>
        <time>2009-11-23T07:24:21Z</time>
      </trkpt>
      <trkpt lat="44.71865" lon="6.5676">
        <ele>1401</ele>
        <time>2009-11-23T07:24:21Z</time>
      </trkpt>
      <trkpt lat="44.71822" lon="6.56817">
        <ele>1390</ele>
        <time>2009-11-23T07:24:21Z</time>
      </trkpt>
      <trkpt lat="44.7179" lon="6.56887">
        <ele>1378</ele>
        <time>2009-11-23T07:24:21Z</time>
      </trkpt>
      <trkpt lat="44.71769" lon="6.56961">
        <ele>1361</ele>
        <time>2009-11-23T07:24:21Z</time>
      </trkpt>
      <trkpt lat="44.71734" lon="6.57009">
        <ele>1347</ele>
        <time>2009-11-23T07:24:21Z</time>
      </trkpt>
      <trkpt lat="44.71689" lon="6.57012">
        <ele>1349</ele>
        <time>2009-11-23T07:24:21Z</time>
      </trkpt>
      <trkpt lat="44.7162" lon="6.56975">
        <ele>1357</ele>
        <time>2009-11-23T07:24:21Z</time>
      </trkpt>
      <trkpt lat="44.71567" lon="6.56952">
        <ele>1352</ele>
        <time>2009-11-23T07:24:21Z</time>
      </trkpt>
      <trkpt lat="44.71517" lon="6.56901">
        <ele>1367</ele>
        <time>2009-11-23T07:24:21Z</time>
      </trkpt>
      <trkpt lat="44.71469" lon="6.56869">
        <ele>1376</ele>
        <time>2009-11-23T07:24:21Z</time>
      </trkpt>
      <trkpt lat="44.71431" lon="6.56854">
        <ele>1387</ele>
        <time>2009-11-23T07:24:21Z</time>
      </trkpt>
      <trkpt lat="44.71368" lon="6.56855">
        <ele>1404</ele>
        <time>2009-11-23T07:24:21Z</time>
      </trkpt>
      <trkpt lat="44.71351" lon="6.56841">
        <ele>1410</ele>
        <time>2009-11-23T07:24:21Z</time>
      </trkpt>
      <trkpt lat="44.71316" lon="6.56855">
        <ele>1409</ele>
        <time>2009-11-23T07:24:21Z</time>
      </trkpt>
      <trkpt lat="44.71198" lon="6.56827">
        <ele>1421</ele>
        <time>2009-11-23T07:24:21Z</time>
      </trkpt>
      <trkpt lat="44.71149" lon="6.56703">
        <ele>1447</ele>
        <time>2009-11-23T07:24:21Z</time>
      </trkpt>
      <trkpt lat="44.71126" lon="6.56701">
        <ele>1445</ele>
        <time>2009-11-23T07:24:21Z</time>
      </trkpt>
      <trkpt lat="44.71088" lon="6.56752">
        <ele>1438</ele>
        <time>2009-11-23T07:24:21Z</time>
      </trkpt>
      <trkpt lat="44.71052" lon="6.56809">
        <ele>1441</ele>
        <time>2009-11-23T07:24:21Z</time>
      </trkpt>
      <trkpt lat="44.70988" lon="6.56909">
        <ele>1445</ele>
        <time>2009-11-23T07:24:21Z</time>
      </trkpt>
      <trkpt lat="44.70966" lon="6.56942">
        <ele>1442</ele>
        <time>2009-11-23T07:24:21Z</time>
      </trkpt>
      <trkpt lat="44.70896" lon="6.56955">
        <ele>1454</ele>
        <time>2009-11-23T07:24:21Z</time>
      </trkpt>
      <trkpt lat="44.7087" lon="6.56988">
        <ele>1455</ele>
        <time>2009-11-23T07:24:21Z</time>
      </trkpt>
      <trkpt lat="44.70857" lon="6.57031">
        <ele>1453</ele>
        <time>2009-11-23T07:24:21Z</time>
      </trkpt>
      <trkpt lat="44.70806" lon="6.57081">
        <ele>1453</ele>
        <time>2009-11-23T07:24:21Z</time>
      </trkpt>
      <trkpt lat="44.70758" lon="6.5709">
        <ele>1464</ele>
        <time>2009-11-23T07:24:21Z</time>
      </trkpt>
      <trkpt lat="44.70707" lon="6.57058">
        <ele>1483</ele>
        <time>2009-11-23T07:24:21Z</time>
      </trkpt>
      <trkpt lat="44.70662" lon="6.57077">
        <ele>1484</ele>
        <time>2009-11-23T07:24:21Z</time>
      </trkpt>
      <trkpt lat="44.70592" lon="6.57119">
        <ele>1479</ele>
        <time>2009-11-23T07:24:21Z</time>
      </trkpt>
      <trkpt lat="44.70535" lon="6.57152">
        <ele>1477</ele>
        <time>2009-11-23T07:24:21Z</time>
      </trkpt>
      <trkpt lat="44.70493" lon="6.5714">
        <ele>1482</ele>
        <time>2009-11-23T07:24:21Z</time>
      </trkpt>
      <trkpt lat="44.70466" lon="6.57078">
        <ele>1492</ele>
        <time>2009-11-23T07:24:21Z</time>
      </trkpt>
      <trkpt lat="44.70426" lon="6.57056">
        <ele>1491</ele>
        <time>2009-11-23T07:24:21Z</time>
      </trkpt>
      <trkpt lat="44.70382" lon="6.57037">
        <ele>1485</ele>
        <time>2009-11-23T07:24:21Z</time>
      </trkpt>
      <trkpt lat="44.70331" lon="6.56995">
        <ele>1479</ele>
        <time>2009-11-23T07:24:21Z</time>
      </trkpt>
      <trkpt lat="44.7031" lon="6.56911">
        <ele>1492</ele>
        <time>2009-11-23T07:24:21Z</time>
      </trkpt>
      <trkpt lat="44.70214" lon="6.56882">
        <ele>1464</ele>
        <time>2009-11-23T07:24:21Z</time>
      </trkpt>
      <trkpt lat="44.70167" lon="6.56935">
        <ele>1465</ele>
        <time>2009-11-23T07:24:21Z</time>
      </trkpt>
      <trkpt lat="44.70179" lon="6.57094">
        <ele>1452</ele>
        <time>2009-11-23T07:24:21Z</time>
      </trkpt>
      <trkpt lat="44.70179" lon="6.57094">
        <ele>1452</ele>
        <time>2009-11-23T07:24:21Z</time>
      </trkpt>
      <trkpt lat="44.70185" lon="6.57123">
        <ele>1445</ele>
        <time>2009-11-23T07:24:21Z</time>
      </trkpt>
      <trkpt lat="44.70176" lon="6.57182">
        <ele>1438</ele>
        <time>2009-11-23T07:24:21Z</time>
      </trkpt>
      <trkpt lat="44.70155" lon="6.5725">
        <ele>1436</ele>
        <time>2009-11-23T07:24:21Z</time>
      </trkpt>
      <trkpt lat="44.7011" lon="6.57306">
        <ele>1450</ele>
        <time>2009-11-23T07:24:21Z</time>
      </trkpt>
      <trkpt lat="44.70119" lon="6.57427">
        <ele>1434</ele>
        <time>2009-11-23T07:24:21Z</time>
      </trkpt>
      <trkpt lat="44.70113" lon="6.57474">
        <ele>1431</ele>
        <time>2009-11-23T07:24:21Z</time>
      </trkpt>
      <trkpt lat="44.7009" lon="6.57542">
        <ele>1439</ele>
        <time>2009-11-23T07:24:21Z</time>
      </trkpt>
      <trkpt lat="44.70093" lon="6.57583">
        <ele>1426</ele>
        <time>2009-11-23T07:24:21Z</time>
      </trkpt>
      <trkpt lat="44.70013" lon="6.57669">
        <ele>1424</ele>
        <time>2009-11-23T07:24:21Z</time>
      </trkpt>
      <trkpt lat="44.69907" lon="6.57837">
        <ele>1414</ele>
        <time>2009-11-23T07:24:21Z</time>
      </trkpt>
      <trkpt lat="44.69808" lon="6.57833">
        <ele>1438</ele>
        <time>2009-11-23T07:24:21Z</time>
      </trkpt>
      <trkpt lat="44.69713" lon="6.5786">
        <ele>1468</ele>
        <time>2009-11-23T07:24:21Z</time>
      </trkpt>
      <trkpt lat="44.69612" lon="6.579">
        <ele>1496</ele>
        <time>2009-11-23T07:24:21Z</time>
      </trkpt>
      <trkpt lat="44.69534" lon="6.57935">
        <ele>1508</ele>
        <time>2009-11-23T07:24:21Z</time>
      </trkpt>
      <trkpt lat="44.69417" lon="6.58005">
        <ele>1507</ele>
        <time>2009-11-23T07:24:21Z</time>
      </trkpt>
      <trkpt lat="44.69269" lon="6.58095">
        <ele>1470</ele>
        <time>2009-11-23T07:24:21Z</time>
      </trkpt>
      <trkpt lat="44.692" lon="6.58125">
        <ele>1467</ele>
        <time>2009-11-23T07:24:21Z</time>
      </trkpt>
      <trkpt lat="44.69175" lon="6.58142">
        <ele>1465</ele>
        <time>2009-11-23T07:24:21Z</time>
      </trkpt>
      <trkpt lat="44.69131" lon="6.58113">
        <ele>1477</ele>
        <time>2009-11-23T07:24:21Z</time>
      </trkpt>
      <trkpt lat="44.69077" lon="6.58103">
        <ele>1480</ele>
        <time>2009-11-23T07:24:21Z</time>
      </trkpt>
      <trkpt lat="44.68998" lon="6.58056">
        <ele>1504</ele>
        <time>2009-11-23T07:24:21Z</time>
      </trkpt>
      <trkpt lat="44.68938" lon="6.57982">
        <ele>1526</ele>
        <time>2009-11-23T07:24:21Z</time>
      </trkpt>
      <trkpt lat="44.68917" lon="6.5793">
        <ele>1536</ele>
        <time>2009-11-23T07:24:21Z</time>
      </trkpt>
      <trkpt lat="44.68967" lon="6.57918">
        <ele>1554</ele>
        <time>2009-11-23T07:24:21Z</time>
      </trkpt>
      <trkpt lat="44.68989" lon="6.57834">
        <ele>1583</ele>
        <time>2009-11-23T07:24:21Z</time>
      </trkpt>
      <trkpt lat="44.68969" lon="6.57757">
        <ele>1583</ele>
        <time>2009-11-23T07:24:21Z</time>
      </trkpt>
      <trkpt lat="44.68942" lon="6.57698">
        <ele>1582</ele>
        <time>2009-11-23T07:24:21Z</time>
      </trkpt>
      <trkpt lat="44.68917" lon="6.57658">
        <ele>1581</ele>
        <time>2009-11-23T07:24:21Z</time>
      </trkpt>
      <trkpt lat="44.68914" lon="6.57617">
        <ele>1588</ele>
        <time>2009-11-23T07:24:21Z</time>
      </trkpt>
      <trkpt lat="44.68864" lon="6.57553">
        <ele>1580</ele>
        <time>2009-11-23T07:24:21Z</time>
      </trkpt>
      <trkpt lat="44.68846" lon="6.57457">
        <ele>1587</ele>
        <time>2009-11-23T07:24:21Z</time>
      </trkpt>
      <trkpt lat="44.68841" lon="6.57331">
        <ele>1602</ele>
        <time>2009-11-23T07:24:21Z</time>
      </trkpt>
      <trkpt lat="44.68822" lon="6.57256">
        <ele>1598</ele>
        <time>2009-11-23T07:24:21Z</time>
      </trkpt>
      <trkpt lat="44.68794" lon="6.57267">
        <ele>1588</ele>
        <time>2009-11-23T07:24:21Z</time>
      </trkpt>
      <trkpt lat="44.68774" lon="6.57329">
        <ele>1577</ele>
        <time>2009-11-23T07:24:21Z</time>
      </trkpt>
      <trkpt lat="44.68749" lon="6.57402">
        <ele>1558</ele>
        <time>2009-11-23T07:24:21Z</time>
      </trkpt>
      <trkpt lat="44.68708" lon="6.57469">
        <ele>1541</ele>
        <time>2009-11-23T07:24:21Z</time>
      </trkpt>
      <trkpt lat="44.68647" lon="6.57527">
        <ele>1533</ele>
        <time>2009-11-23T07:24:21Z</time>
      </trkpt>
      <trkpt lat="44.68577" lon="6.57598">
        <ele>1527</ele>
        <time>2009-11-23T07:24:21Z</time>
      </trkpt>
      <trkpt lat="44.68544" lon="6.5768">
        <ele>1513</ele>
        <time>2009-11-23T07:24:21Z</time>
      </trkpt>
      <trkpt lat="44.68521" lon="6.57704">
        <ele>1511</ele>
        <time>2009-11-23T07:24:21Z</time>
      </trkpt>
      <trkpt lat="44.68482" lon="6.57711">
        <ele>1512</ele>
        <time>2009-11-23T07:24:21Z</time>
      </trkpt>
      <trkpt lat="44.68447" lon="6.57761">
        <ele>1504</ele>
        <time>2009-11-23T07:24:21Z</time>
      </trkpt>
      <trkpt lat="44.68386" lon="6.57744">
        <ele>1508</ele>
        <time>2009-11-23T07:24:21Z</time>
      </trkpt>
      <trkpt lat="44.68342" lon="6.57776">
        <ele>1506</ele>
        <time>2009-11-23T07:24:21Z</time>
      </trkpt>
      <trkpt lat="44.68291" lon="6.57816">
        <ele>1507</ele>
        <time>2009-11-23T07:24:21Z</time>
      </trkpt>
      <trkpt lat="44.68235" lon="6.57944">
        <ele>1500</ele>
        <time>2009-11-23T07:24:21Z</time>
      </trkpt>
      <trkpt lat="44.68233" lon="6.57985">
        <ele>1494</ele>
        <time>2009-11-23T07:24:21Z</time>
      </trkpt>
      <trkpt lat="44.6821" lon="6.5805">
        <ele>1489</ele>
        <time>2009-11-23T07:24:21Z</time>
      </trkpt>
      <trkpt lat="44.68178" lon="6.5812">
        <ele>1486</ele>
        <time>2009-11-23T07:24:21Z</time>
      </trkpt>
      <trkpt lat="44.68153" lon="6.582">
        <ele>1489</ele>
        <time>2009-11-23T07:24:21Z</time>
      </trkpt>
      <trkpt lat="44.68127" lon="6.58277">
        <ele>1496</ele>
        <time>2009-11-23T07:24:21Z</time>
      </trkpt>
      <trkpt lat="44.68087" lon="6.58328">
        <ele>1500</ele>
        <time>2009-11-23T07:24:21Z</time>
      </trkpt>
      <trkpt lat="44.68072" lon="6.58311">
        <ele>1501</ele>
        <time>2009-11-23T07:24:21Z</time>
      </trkpt>
      <trkpt lat="44.68087" lon="6.58214">
        <ele>1501</ele>
        <time>2009-11-23T07:24:21Z</time>
      </trkpt>
      <trkpt lat="44.68093" lon="6.58183">
        <ele>1502</ele>
        <time>2009-11-23T07:24:21Z</time>
      </trkpt>
      <trkpt lat="44.68068" lon="6.58181">
        <ele>1506</ele>
        <time>2009-11-23T07:24:21Z</time>
      </trkpt>
      <trkpt lat="44.68011" lon="6.58243">
        <ele>1506</ele>
        <time>2009-11-23T07:24:21Z</time>
      </trkpt>
      <trkpt lat="44.67973" lon="6.58237">
        <ele>1509</ele>
        <time>2009-11-23T07:24:21Z</time>
      </trkpt>
      <trkpt lat="44.67942" lon="6.58235">
        <ele>1510</ele>
        <time>2009-11-23T07:24:21Z</time>
      </trkpt>
      <trkpt lat="44.67894" lon="6.5824">
        <ele>1512</ele>
        <time>2009-11-23T07:24:21Z</time>
      </trkpt>
      <trkpt lat="44.67845" lon="6.58243">
        <ele>1515</ele>
        <time>2009-11-23T07:24:21Z</time>
      </trkpt>
      <trkpt lat="44.67786" lon="6.58239">
        <ele>1517</ele>
        <time>2009-11-23T07:24:21Z</time>
      </trkpt>
      <trkpt lat="44.67747" lon="6.5822">
        <ele>1521</ele>
        <time>2009-11-23T07:24:21Z</time>
      </trkpt>
      <trkpt lat="44.6772" lon="6.58151">
        <ele>1536</ele>
        <time>2009-11-23T07:24:21Z</time>
      </trkpt>
      <trkpt lat="44.6769" lon="6.58108">
        <ele>1539</ele>
        <time>2009-11-23T07:24:21Z</time>
      </trkpt>
      <trkpt lat="44.6764" lon="6.58054">
        <ele>1539</ele>
        <time>2009-11-23T07:24:21Z</time>
      </trkpt>
      <trkpt lat="44.67606" lon="6.58013">
        <ele>1541</ele>
        <time>2009-11-23T07:24:21Z</time>
      </trkpt>
      <trkpt lat="44.67564" lon="6.57985">
        <ele>1542</ele>
        <time>2009-11-23T07:24:21Z</time>
      </trkpt>
      <trkpt lat="44.67517" lon="6.57972">
        <ele>1542</ele>
        <time>2009-11-23T07:24:21Z</time>
      </trkpt>
      <trkpt lat="44.67476" lon="6.5795">
        <ele>1543</ele>
        <time>2009-11-23T07:24:21Z</time>
      </trkpt>
      <trkpt lat="44.67436" lon="6.57912">
        <ele>1549</ele>
        <time>2009-11-23T07:24:21Z</time>
      </trkpt>
      <trkpt lat="44.67381" lon="6.57839">
        <ele>1560</ele>
        <time>2009-11-23T07:24:21Z</time>
      </trkpt>
      <trkpt lat="44.67335" lon="6.5781">
        <ele>1557</ele>
        <time>2009-11-23T07:24:21Z</time>
      </trkpt>
      <trkpt lat="44.67293" lon="6.57788">
        <ele>1556</ele>
        <time>2009-11-23T07:24:21Z</time>
      </trkpt>
      <trkpt lat="44.67261" lon="6.57792">
        <ele>1552</ele>
        <time>2009-11-23T07:24:21Z</time>
      </trkpt>
      <trkpt lat="44.67224" lon="6.57817">
        <ele>1543</ele>
        <time>2009-11-23T07:24:21Z</time>
      </trkpt>
      <trkpt lat="44.67202" lon="6.57812">
        <ele>1545</ele>
        <time>2009-11-23T07:24:21Z</time>
      </trkpt>
      <trkpt lat="44.6715" lon="6.57742">
        <ele>1565</ele>
        <time>2009-11-23T07:24:21Z</time>
      </trkpt>
      <trkpt lat="44.67115" lon="6.57667">
        <ele>1571</ele>
        <time>2009-11-23T07:24:21Z</time>
      </trkpt>
      <trkpt lat="44.67078" lon="6.57626">
        <ele>1568</ele>
        <time>2009-11-23T07:24:21Z</time>
      </trkpt>
      <trkpt lat="44.67034" lon="6.57604">
        <ele>1561</ele>
        <time>2009-11-23T07:24:21Z</time>
      </trkpt>
      <trkpt lat="44.66993" lon="6.57607">
        <ele>1552</ele>
        <time>2009-11-23T07:24:21Z</time>
      </trkpt>
      <trkpt lat="44.66973" lon="6.57622">
        <ele>1545</ele>
        <time>2009-11-23T07:24:21Z</time>
      </trkpt>
      <trkpt lat="44.6694" lon="6.57581">
        <ele>1546</ele>
        <time>2009-11-23T07:24:21Z</time>
      </trkpt>
      <trkpt lat="44.6691" lon="6.57551">
        <ele>1542</ele>
        <time>2009-11-23T07:24:21Z</time>
      </trkpt>
      <trkpt lat="44.66856" lon="6.57543">
        <ele>1525</ele>
        <time>2009-11-23T07:24:21Z</time>
      </trkpt>
      <trkpt lat="44.6678" lon="6.57528">
        <ele>1513</ele>
        <time>2009-11-23T07:24:21Z</time>
      </trkpt>
      <trkpt lat="44.66722" lon="6.57508">
        <ele>1506</ele>
        <time>2009-11-23T07:24:21Z</time>
      </trkpt>
      <trkpt lat="44.66685" lon="6.57477">
        <ele>1505</ele>
        <time>2009-11-23T07:24:21Z</time>
      </trkpt>
      <trkpt lat="44.66651" lon="6.5743">
        <ele>1506</ele>
        <time>2009-11-23T07:24:21Z</time>
      </trkpt>
      <trkpt lat="44.6664" lon="6.57369">
        <ele>1518</ele>
        <time>2009-11-23T07:24:21Z</time>
      </trkpt>
      <trkpt lat="44.66615" lon="6.57304">
        <ele>1520</ele>
        <time>2009-11-23T07:24:21Z</time>
      </trkpt>
      <trkpt lat="44.66577" lon="6.57248">
        <ele>1502</ele>
        <time>2009-11-23T07:24:21Z</time>
      </trkpt>
      <trkpt lat="44.665" lon="6.57213">
        <ele>1461</ele>
        <time>2009-11-23T07:24:21Z</time>
      </trkpt>
      <trkpt lat="44.66425" lon="6.57164">
        <ele>1451</ele>
        <time>2009-11-23T07:24:21Z</time>
      </trkpt>
      <trkpt lat="44.66399" lon="6.57067">
        <ele>1461</ele>
        <time>2009-11-23T07:24:21Z</time>
      </trkpt>
      <trkpt lat="44.66391" lon="6.57">
        <ele>1472</ele>
        <time>2009-11-23T07:24:21Z</time>
      </trkpt>
      <trkpt lat="44.66357" lon="6.56934">
        <ele>1476</ele>
        <time>2009-11-23T07:24:21Z</time>
      </trkpt>
      <trkpt lat="44.66318" lon="6.56906">
        <ele>1465</ele>
        <time>2009-11-23T07:24:21Z</time>
      </trkpt>
      <trkpt lat="44.66299" lon="6.56921">
        <ele>1454</ele>
        <time>2009-11-23T07:24:21Z</time>
      </trkpt>
      <trkpt lat="44.66277" lon="6.56919">
        <ele>1445</ele>
        <time>2009-11-23T07:24:21Z</time>
      </trkpt>
      <trkpt lat="44.66167" lon="6.56958">
        <ele>1401</ele>
        <time>2009-11-23T07:24:21Z</time>
      </trkpt>
      <trkpt lat="44.66146" lon="6.56912">
        <ele>1401</ele>
        <time>2009-11-23T07:24:21Z</time>
      </trkpt>
      <trkpt lat="44.6611" lon="6.56872">
        <ele>1395</ele>
        <time>2009-11-23T07:24:21Z</time>
      </trkpt>
      <trkpt lat="44.66111" lon="6.56834">
        <ele>1405</ele>
        <time>2009-11-23T07:24:21Z</time>
      </trkpt>
      <trkpt lat="44.66093" lon="6.56788">
        <ele>1409</ele>
        <time>2009-11-23T07:24:21Z</time>
      </trkpt>
      <trkpt lat="44.66085" lon="6.56756">
        <ele>1411</ele>
        <time>2009-11-23T07:24:21Z</time>
      </trkpt>
      <trkpt lat="44.66082" lon="6.56709">
        <ele>1416</ele>
        <time>2009-11-23T07:24:21Z</time>
      </trkpt>
      <trkpt lat="44.66042" lon="6.56712">
        <ele>1389</ele>
        <time>2009-11-23T07:24:21Z</time>
      </trkpt>
      <trkpt lat="44.66005" lon="6.56734">
        <ele>1368</ele>
        <time>2009-11-23T07:24:21Z</time>
      </trkpt>
      <trkpt lat="44.65962" lon="6.56731">
        <ele>1375</ele>
        <time>2009-11-23T07:24:21Z</time>
      </trkpt>
      <trkpt lat="44.65939" lon="6.56751">
        <ele>1371</ele>
        <time>2009-11-23T07:24:21Z</time>
      </trkpt>
      <trkpt lat="44.65898" lon="6.56745">
        <ele>1372</ele>
        <time>2009-11-23T07:24:21Z</time>
      </trkpt>
      <trkpt lat="44.65833" lon="6.56687">
        <ele>1371</ele>
        <time>2009-11-23T07:24:21Z</time>
      </trkpt>
      <trkpt lat="44.65774" lon="6.56638">
        <ele>1363</ele>
        <time>2009-11-23T07:24:21Z</time>
      </trkpt>
      <trkpt lat="44.65698" lon="6.56623">
        <ele>1340</ele>
        <time>2009-11-23T07:24:21Z</time>
      </trkpt>
      <trkpt lat="44.65645" lon="6.56553">
        <ele>1342</ele>
        <time>2009-11-23T07:24:21Z</time>
      </trkpt>
      <trkpt lat="44.65609" lon="6.56496">
        <ele>1338</ele>
        <time>2009-11-23T07:24:21Z</time>
      </trkpt>
      <trkpt lat="44.65579" lon="6.56444">
        <ele>1335</ele>
        <time>2009-11-23T07:24:21Z</time>
      </trkpt>
      <trkpt lat="44.65522" lon="6.56405">
        <ele>1329</ele>
        <time>2009-11-23T07:24:21Z</time>
      </trkpt>
      <trkpt lat="44.6546" lon="6.56371">
        <ele>1320</ele>
        <time>2009-11-23T07:24:21Z</time>
      </trkpt>
      <trkpt lat="44.65393" lon="6.56354">
        <ele>1311</ele>
        <time>2009-11-23T07:24:21Z</time>
      </trkpt>
      <trkpt lat="44.6531" lon="6.5636">
        <ele>1303</ele>
        <time>2009-11-23T07:24:21Z</time>
      </trkpt>
      <trkpt lat="44.65258" lon="6.56372">
        <ele>1294</ele>
        <time>2009-11-23T07:24:21Z</time>
      </trkpt>
      <trkpt lat="44.65229" lon="6.56345">
        <ele>1307</ele>
        <time>2009-11-23T07:24:21Z</time>
      </trkpt>
      <trkpt lat="44.65193" lon="6.56351">
        <ele>1303</ele>
        <time>2009-11-23T07:24:21Z</time>
      </trkpt>
      <trkpt lat="44.6514" lon="6.56382">
        <ele>1287</ele>
        <time>2009-11-23T07:24:21Z</time>
      </trkpt>
      <trkpt lat="44.65091" lon="6.56375">
        <ele>1283</ele>
        <time>2009-11-23T07:24:21Z</time>
      </trkpt>
      <trkpt lat="44.6507" lon="6.5638">
        <ele>1277</ele>
        <time>2009-11-23T07:24:21Z</time>
      </trkpt>
      <trkpt lat="44.65055" lon="6.56417">
        <ele>1264</ele>
        <time>2009-11-23T07:24:21Z</time>
      </trkpt>
      <trkpt lat="44.6501" lon="6.56379">
        <ele>1259</ele>
        <time>2009-11-23T07:24:21Z</time>
      </trkpt>
      <trkpt lat="44.65008" lon="6.56476">
        <ele>1239</ele>
        <time>2009-11-23T07:24:21Z</time>
      </trkpt>
      <trkpt lat="44.64992" lon="6.56532">
        <ele>1219</ele>
        <time>2009-11-23T07:24:21Z</time>
      </trkpt>
      <trkpt lat="44.64984" lon="6.56629">
        <ele>1174</ele>
        <time>2009-11-23T07:24:21Z</time>
      </trkpt>
      <trkpt lat="44.64963" lon="6.56593">
        <ele>1186</ele>
        <time>2009-11-23T07:24:21Z</time>
      </trkpt>
      <trkpt lat="44.64953" lon="6.56554">
        <ele>1199</ele>
        <time>2009-11-23T07:24:21Z</time>
      </trkpt>
      <trkpt lat="44.64921" lon="6.56517">
        <ele>1199</ele>
        <time>2009-11-23T07:24:21Z</time>
      </trkpt>
      <trkpt lat="44.64861" lon="6.5649">
        <ele>1183</ele>
        <time>2009-11-23T07:24:21Z</time>
      </trkpt>
      <trkpt lat="44.64815" lon="6.56468">
        <ele>1175</ele>
        <time>2009-11-23T07:24:21Z</time>
      </trkpt>
      <trkpt lat="44.64787" lon="6.56437">
        <ele>1176</ele>
        <time>2009-11-23T07:24:21Z</time>
      </trkpt>
      <trkpt lat="44.64803" lon="6.56366">
        <ele>1194</ele>
        <time>2009-11-23T07:24:21Z</time>
      </trkpt>
      <trkpt lat="44.64839" lon="6.56303">
        <ele>1203</ele>
        <time>2009-11-23T07:24:21Z</time>
      </trkpt>
      <trkpt lat="44.64887" lon="6.56278">
        <ele>1217</ele>
        <time>2009-11-23T07:24:21Z</time>
      </trkpt>
      <trkpt lat="44.64927" lon="6.56237">
        <ele>1220</ele>
        <time>2009-11-23T07:24:21Z</time>
      </trkpt>
      <trkpt lat="44.64947" lon="6.56191">
        <ele>1211</ele>
        <time>2009-11-23T07:24:21Z</time>
      </trkpt>
      <trkpt lat="44.64964" lon="6.56151">
        <ele>1205</ele>
        <time>2009-11-23T07:24:21Z</time>
      </trkpt>
      <trkpt lat="44.65013" lon="6.56123">
        <ele>1210</ele>
        <time>2009-11-23T07:24:21Z</time>
      </trkpt>
      <trkpt lat="44.65072" lon="6.5609">
        <ele>1209</ele>
        <time>2009-11-23T07:24:21Z</time>
      </trkpt>
      <trkpt lat="44.65095" lon="6.56038">
        <ele>1182</ele>
        <time>2009-11-23T07:24:21Z</time>
      </trkpt>
      <trkpt lat="44.65121" lon="6.56002">
        <ele>1174</ele>
        <time>2009-11-23T07:24:21Z</time>
      </trkpt>
      <trkpt lat="44.65156" lon="6.55967">
        <ele>1172</ele>
        <time>2009-11-23T07:24:21Z</time>
      </trkpt>
      <trkpt lat="44.65197" lon="6.55907">
        <ele>1165</ele>
        <time>2009-11-23T07:24:21Z</time>
      </trkpt>
      <trkpt lat="44.65229" lon="6.55887">
        <ele>1171</ele>
        <time>2009-11-23T07:24:21Z</time>
      </trkpt>
      <trkpt lat="44.65251" lon="6.55785">
        <ele>1149</ele>
        <time>2009-11-23T07:24:21Z</time>
      </trkpt>
      <trkpt lat="44.65281" lon="6.55702">
        <ele>1153</ele>
        <time>2009-11-23T07:24:21Z</time>
      </trkpt>
      <trkpt lat="44.65299" lon="6.5559">
        <ele>1149</ele>
        <time>2009-11-23T07:24:21Z</time>
      </trkpt>
      <trkpt lat="44.6535" lon="6.55496">
        <ele>1162</ele>
        <time>2009-11-23T07:24:21Z</time>
      </trkpt>
      <trkpt lat="44.65369" lon="6.55466">
        <ele>1165</ele>
        <time>2009-11-23T07:24:21Z</time>
      </trkpt>
      <trkpt lat="44.65375" lon="6.55422">
        <ele>1156</ele>
        <time>2009-11-23T07:24:21Z</time>
      </trkpt>
      <trkpt lat="44.65469" lon="6.55328">
        <ele>1173</ele>
        <time>2009-11-23T07:24:21Z</time>
      </trkpt>
      <trkpt lat="44.65515" lon="6.55234">
        <ele>1169</ele>
        <time>2009-11-23T07:24:21Z</time>
      </trkpt>
      <trkpt lat="44.65598" lon="6.5518">
        <ele>1198</ele>
        <time>2009-11-23T07:24:21Z</time>
      </trkpt>
      <trkpt lat="44.65648" lon="6.55124">
        <ele>1202</ele>
        <time>2009-11-23T07:24:21Z</time>
      </trkpt>
      <trkpt lat="44.65677" lon="6.55057">
        <ele>1198</ele>
        <time>2009-11-23T07:24:21Z</time>
      </trkpt>
      <trkpt lat="44.65694" lon="6.54979">
        <ele>1193</ele>
        <time>2009-11-23T07:24:21Z</time>
      </trkpt>
      <trkpt lat="44.65722" lon="6.54886">
        <ele>1197</ele>
        <time>2009-11-23T07:24:21Z</time>
      </trkpt>
      <trkpt lat="44.65771" lon="6.54833">
        <ele>1210</ele>
        <time>2009-11-23T07:24:21Z</time>
      </trkpt>
      <trkpt lat="44.65798" lon="6.54791">
        <ele>1220</ele>
        <time>2009-11-23T07:24:21Z</time>
      </trkpt>
      <trkpt lat="44.65814" lon="6.54726">
        <ele>1229</ele>
        <time>2009-11-23T07:24:21Z</time>
      </trkpt>
      <trkpt lat="44.65831" lon="6.5463">
        <ele>1234</ele>
        <time>2009-11-23T07:24:21Z</time>
      </trkpt>
      <trkpt lat="44.65869" lon="6.54569">
        <ele>1252</ele>
        <time>2009-11-23T07:24:21Z</time>
      </trkpt>
      <trkpt lat="44.65896" lon="6.5453">
        <ele>1265</ele>
        <time>2009-11-23T07:24:21Z</time>
      </trkpt>
      <trkpt lat="44.65904" lon="6.54474">
        <ele>1267</ele>
        <time>2009-11-23T07:24:21Z</time>
      </trkpt>
      <trkpt lat="44.65896" lon="6.54401">
        <ele>1260</ele>
        <time>2009-11-23T07:24:21Z</time>
      </trkpt>
      <trkpt lat="44.65909" lon="6.54345">
        <ele>1267</ele>
        <time>2009-11-23T07:24:21Z</time>
      </trkpt>
      <trkpt lat="44.65906" lon="6.5431">
        <ele>1266</ele>
        <time>2009-11-23T07:24:21Z</time>
      </trkpt>
      <trkpt lat="44.65884" lon="6.54302">
        <ele>1253</ele>
        <time>2009-11-23T07:24:21Z</time>
      </trkpt>
      <trkpt lat="44.65861" lon="6.5432">
        <ele>1255</ele>
        <time>2009-11-23T07:24:21Z</time>
      </trkpt>
      <trkpt lat="44.65844" lon="6.54347">
        <ele>1253</ele>
        <time>2009-11-23T07:24:21Z</time>
      </trkpt>
      <trkpt lat="44.65842" lon="6.54394">
        <ele>1246</ele>
        <time>2009-11-23T07:24:21Z</time>
      </trkpt>
      <trkpt lat="44.65804" lon="6.54464">
        <ele>1248</ele>
        <time>2009-11-23T07:24:21Z</time>
      </trkpt>
      <trkpt lat="44.65767" lon="6.54527">
        <ele>1247</ele>
        <time>2009-11-23T07:24:21Z</time>
      </trkpt>
      <trkpt lat="44.65764" lon="6.54561">
        <ele>1241</ele>
        <time>2009-11-23T07:24:21Z</time>
      </trkpt>
      <trkpt lat="44.65731" lon="6.54606">
        <ele>1242</ele>
        <time>2009-11-23T07:24:21Z</time>
      </trkpt>
      <trkpt lat="44.65694" lon="6.54632">
        <ele>1253</ele>
        <time>2009-11-23T07:24:21Z</time>
      </trkpt>
      <trkpt lat="44.65672" lon="6.54662">
        <ele>1254</ele>
        <time>2009-11-23T07:24:21Z</time>
      </trkpt>
      <trkpt lat="44.65664" lon="6.54705">
        <ele>1247</ele>
        <time>2009-11-23T07:24:21Z</time>
      </trkpt>
      <trkpt lat="44.65615" lon="6.54793">
        <ele>1240</ele>
        <time>2009-11-23T07:24:21Z</time>
      </trkpt>
      <trkpt lat="44.65589" lon="6.54842">
        <ele>1233</ele>
        <time>2009-11-23T07:24:21Z</time>
      </trkpt>
      <trkpt lat="44.6555" lon="6.54851">
        <ele>1238</ele>
        <time>2009-11-23T07:24:21Z</time>
      </trkpt>
      <trkpt lat="44.65494" lon="6.54857">
        <ele>1242</ele>
        <time>2009-11-23T07:24:21Z</time>
      </trkpt>
      <trkpt lat="44.65466" lon="6.54864">
        <ele>1244</ele>
        <time>2009-11-23T07:24:21Z</time>
      </trkpt>
      <trkpt lat="44.65437" lon="6.54909">
        <ele>1240</ele>
        <time>2009-11-23T07:24:21Z</time>
      </trkpt>
      <trkpt lat="44.65411" lon="6.54955">
        <ele>1234</ele>
        <time>2009-11-23T07:24:21Z</time>
      </trkpt>
      <trkpt lat="44.65355" lon="6.54957">
        <ele>1240</ele>
        <time>2009-11-23T07:24:21Z</time>
      </trkpt>
      <trkpt lat="44.65293" lon="6.5504">
        <ele>1223</ele>
        <time>2009-11-23T07:24:21Z</time>
      </trkpt>
      <trkpt lat="44.65254" lon="6.55047">
        <ele>1229</ele>
        <time>2009-11-23T07:24:21Z</time>
      </trkpt>
      <trkpt lat="44.65223" lon="6.55089">
        <ele>1221</ele>
        <time>2009-11-23T07:24:21Z</time>
      </trkpt>
      <trkpt lat="44.65162" lon="6.55119">
        <ele>1241</ele>
        <time>2009-11-23T07:24:21Z</time>
      </trkpt>
      <trkpt lat="44.65128" lon="6.55164">
        <ele>1235</ele>
        <time>2009-11-23T07:24:21Z</time>
      </trkpt>
      <trkpt lat="44.65068" lon="6.55209">
        <ele>1234</ele>
        <time>2009-11-23T07:24:21Z</time>
      </trkpt>
      <trkpt lat="44.65009" lon="6.55281">
        <ele>1233</ele>
        <time>2009-11-23T07:24:21Z</time>
      </trkpt>
      <trkpt lat="44.64959" lon="6.5534">
        <ele>1236</ele>
        <time>2009-11-23T07:24:21Z</time>
      </trkpt>
      <trkpt lat="44.64906" lon="6.55383">
        <ele>1237</ele>
        <time>2009-11-23T07:24:21Z</time>
      </trkpt>
      <trkpt lat="44.64853" lon="6.55402">
        <ele>1243</ele>
        <time>2009-11-23T07:24:21Z</time>
      </trkpt>
      <trkpt lat="44.64812" lon="6.55424">
        <ele>1245</ele>
        <time>2009-11-23T07:24:21Z</time>
      </trkpt>
      <trkpt lat="44.64761" lon="6.55451">
        <ele>1243</ele>
        <time>2009-11-23T07:24:21Z</time>
      </trkpt>
      <trkpt lat="44.6471" lon="6.55454">
        <ele>1246</ele>
        <time>2009-11-23T07:24:21Z</time>
      </trkpt>
      <trkpt lat="44.64659" lon="6.55431">
        <ele>1254</ele>
        <time>2009-11-23T07:24:21Z</time>
      </trkpt>
      <trkpt lat="44.64523" lon="6.55459">
        <ele>1249</ele>
        <time>2009-11-23T07:24:21Z</time>
      </trkpt>
      <trkpt lat="44.64449" lon="6.55488">
        <ele>1247</ele>
        <time>2009-11-23T07:24:21Z</time>
      </trkpt>
      <trkpt lat="44.64391" lon="6.55543">
        <ele>1241</ele>
        <time>2009-11-23T07:24:21Z</time>
      </trkpt>
      <trkpt lat="44.64309" lon="6.55578">
        <ele>1248</ele>
        <time>2009-11-23T07:24:21Z</time>
      </trkpt>
      <trkpt lat="44.64184" lon="6.55544">
        <ele>1253</ele>
        <time>2009-11-23T07:24:21Z</time>
      </trkpt>
      <trkpt lat="44.64115" lon="6.55519">
        <ele>1253</ele>
        <time>2009-11-23T07:24:21Z</time>
      </trkpt>
      <trkpt lat="44.64083" lon="6.55482">
        <ele>1258</ele>
        <time>2009-11-23T07:24:21Z</time>
      </trkpt>
      <trkpt lat="44.64036" lon="6.5545">
        <ele>1258</ele>
        <time>2009-11-23T07:24:21Z</time>
      </trkpt>
      <trkpt lat="44.63986" lon="6.55425">
        <ele>1258</ele>
        <time>2009-11-23T07:24:21Z</time>
      </trkpt>
      <trkpt lat="44.63953" lon="6.55387">
        <ele>1261</ele>
        <time>2009-11-23T07:24:21Z</time>
      </trkpt>
      <trkpt lat="44.63922" lon="6.55319">
        <ele>1268</ele>
        <time>2009-11-23T07:24:21Z</time>
      </trkpt>
      <trkpt lat="44.63881" lon="6.55265">
        <ele>1273</ele>
        <time>2009-11-23T07:24:21Z</time>
      </trkpt>
      <trkpt lat="44.63843" lon="6.55206">
        <ele>1278</ele>
        <time>2009-11-23T07:24:21Z</time>
      </trkpt>
      <trkpt lat="44.63814" lon="6.552">
        <ele>1272</ele>
        <time>2009-11-23T07:24:21Z</time>
      </trkpt>
      <trkpt lat="44.63771" lon="6.55203">
        <ele>1266</ele>
        <time>2009-11-23T07:24:21Z</time>
      </trkpt>
      <trkpt lat="44.63742" lon="6.55214">
        <ele>1260</ele>
        <time>2009-11-23T07:24:21Z</time>
      </trkpt>
      <trkpt lat="44.63709" lon="6.55183">
        <ele>1258</ele>
        <time>2009-11-23T07:24:21Z</time>
      </trkpt>
      <trkpt lat="44.6369" lon="6.55137">
        <ele>1257</ele>
        <time>2009-11-23T07:24:21Z</time>
      </trkpt>
      <trkpt lat="44.63709" lon="6.55069">
        <ele>1258</ele>
        <time>2009-11-23T07:24:21Z</time>
      </trkpt>
      <trkpt lat="44.63748" lon="6.54984">
        <ele>1257</ele>
        <time>2009-11-23T07:24:21Z</time>
      </trkpt>
      <trkpt lat="44.63761" lon="6.54938">
        <ele>1254</ele>
        <time>2009-11-23T07:24:21Z</time>
      </trkpt>
      <trkpt lat="44.63752" lon="6.54884">
        <ele>1242</ele>
        <time>2009-11-23T07:24:21Z</time>
      </trkpt>
      <trkpt lat="44.63734" lon="6.54819">
        <ele>1231</ele>
        <time>2009-11-23T07:24:21Z</time>
      </trkpt>
      <trkpt lat="44.63701" lon="6.54747">
        <ele>1215</ele>
        <time>2009-11-23T07:24:21Z</time>
      </trkpt>
      <trkpt lat="44.63688" lon="6.5468">
        <ele>1212</ele>
        <time>2009-11-23T07:24:21Z</time>
      </trkpt>
      <trkpt lat="44.63647" lon="6.5462">
        <ele>1196</ele>
        <time>2009-11-23T07:24:21Z</time>
      </trkpt>
      <trkpt lat="44.63621" lon="6.54546">
        <ele>1187</ele>
        <time>2009-11-23T07:24:21Z</time>
      </trkpt>
      <trkpt lat="44.63584" lon="6.54502">
        <ele>1175</ele>
        <time>2009-11-23T07:24:21Z</time>
      </trkpt>
      <trkpt lat="44.63528" lon="6.54444">
        <ele>1163</ele>
        <time>2009-11-23T07:24:21Z</time>
      </trkpt>
      <trkpt lat="44.63497" lon="6.54417">
        <ele>1155</ele>
        <time>2009-11-23T07:24:21Z</time>
      </trkpt>
      <trkpt lat="44.63519" lon="6.5433">
        <ele>1157</ele>
        <time>2009-11-23T07:24:21Z</time>
      </trkpt>
      <trkpt lat="44.63513" lon="6.54298">
        <ele>1148</ele>
        <time>2009-11-23T07:24:21Z</time>
      </trkpt>
      <trkpt lat="44.63488" lon="6.54309">
        <ele>1138</ele>
        <time>2009-11-23T07:24:21Z</time>
      </trkpt>
      <trkpt lat="44.63469" lon="6.54329">
        <ele>1131</ele>
        <time>2009-11-23T07:24:21Z</time>
      </trkpt>
      <trkpt lat="44.63434" lon="6.54301">
        <ele>1116</ele>
        <time>2009-11-23T07:24:21Z</time>
      </trkpt>
      <trkpt lat="44.63396" lon="6.54229">
        <ele>1124</ele>
        <time>2009-11-23T07:24:21Z</time>
      </trkpt>
      <trkpt lat="44.63385" lon="6.54172">
        <ele>1136</ele>
        <time>2009-11-23T07:24:21Z</time>
      </trkpt>
      <trkpt lat="44.6336" lon="6.54122">
        <ele>1137</ele>
        <time>2009-11-23T07:24:21Z</time>
      </trkpt>
      <trkpt lat="44.63338" lon="6.54058">
        <ele>1142</ele>
        <time>2009-11-23T07:24:21Z</time>
      </trkpt>
      <trkpt lat="44.63301" lon="6.53951">
        <ele>1147</ele>
        <time>2009-11-23T07:24:21Z</time>
      </trkpt>
      <trkpt lat="44.6326" lon="6.53901">
        <ele>1137</ele>
        <time>2009-11-23T07:24:21Z</time>
      </trkpt>
      <trkpt lat="44.63202" lon="6.53846">
        <ele>1125</ele>
        <time>2009-11-23T07:24:21Z</time>
      </trkpt>
      <trkpt lat="44.63146" lon="6.53826">
        <ele>1116</ele>
        <time>2009-11-23T07:24:21Z</time>
      </trkpt>
      <trkpt lat="44.63107" lon="6.53779">
        <ele>1119</ele>
        <time>2009-11-23T07:24:21Z</time>
      </trkpt>
      <trkpt lat="44.63081" lon="6.53701">
        <ele>1120</ele>
        <time>2009-11-23T07:24:21Z</time>
      </trkpt>
      <trkpt lat="44.63055" lon="6.53627">
        <ele>1117</ele>
        <time>2009-11-23T07:24:21Z</time>
      </trkpt>
      <trkpt lat="44.63028" lon="6.53555">
        <ele>1112</ele>
        <time>2009-11-23T07:24:21Z</time>
      </trkpt>
      <trkpt lat="44.63018" lon="6.53482">
        <ele>1118</ele>
        <time>2009-11-23T07:24:21Z</time>
      </trkpt>
      <trkpt lat="44.62995" lon="6.53493">
        <ele>1106</ele>
        <time>2009-11-23T07:24:21Z</time>
      </trkpt>
      <trkpt lat="44.62976" lon="6.53558">
        <ele>1096</ele>
        <time>2009-11-23T07:24:21Z</time>
      </trkpt>
      <trkpt lat="44.62942" lon="6.53571">
        <ele>1092</ele>
        <time>2009-11-23T07:24:21Z</time>
      </trkpt>
      <trkpt lat="44.62909" lon="6.53562">
        <ele>1095</ele>
        <time>2009-11-23T07:24:21Z</time>
      </trkpt>
      <trkpt lat="44.62868" lon="6.53559">
        <ele>1093</ele>
        <time>2009-11-23T07:24:21Z</time>
      </trkpt>
      <trkpt lat="44.6282" lon="6.53587">
        <ele>1081</ele>
        <time>2009-11-23T07:24:21Z</time>
      </trkpt>
      <trkpt lat="44.62745" lon="6.53594">
        <ele>1075</ele>
        <time>2009-11-23T07:24:21Z</time>
      </trkpt>
      <trkpt lat="44.62696" lon="6.53581">
        <ele>1070</ele>
        <time>2009-11-23T07:24:21Z</time>
      </trkpt>
      <trkpt lat="44.6265" lon="6.53565">
        <ele>1062</ele>
        <time>2009-11-23T07:24:21Z</time>
      </trkpt>
      <trkpt lat="44.62623" lon="6.53541">
        <ele>1060</ele>
        <time>2009-11-23T07:24:21Z</time>
      </trkpt>
      <trkpt lat="44.6258" lon="6.5349">
        <ele>1055</ele>
        <time>2009-11-23T07:24:21Z</time>
      </trkpt>
      <trkpt lat="44.62544" lon="6.53446">
        <ele>1049</ele>
        <time>2009-11-23T07:24:21Z</time>
      </trkpt>
      <trkpt lat="44.62505" lon="6.5339">
        <ele>1048</ele>
        <time>2009-11-23T07:24:21Z</time>
      </trkpt>
      <trkpt lat="44.62469" lon="6.53337">
        <ele>1046</ele>
        <time>2009-11-23T07:24:21Z</time>
      </trkpt>
      <trkpt lat="44.62402" lon="6.53269">
        <ele>1038</ele>
        <time>2009-11-23T07:24:21Z</time>
      </trkpt>
      <trkpt lat="44.62392" lon="6.5324">
        <ele>1041</ele>
        <time>2009-11-23T07:24:21Z</time>
      </trkpt>
      <trkpt lat="44.6236" lon="6.53177">
        <ele>1044</ele>
        <time>2009-11-23T07:24:21Z</time>
      </trkpt>
      <trkpt lat="44.62336" lon="6.53112">
        <ele>1051</ele>
        <time>2009-11-23T07:24:21Z</time>
      </trkpt>
      <trkpt lat="44.62307" lon="6.53044">
        <ele>1058</ele>
        <time>2009-11-23T07:24:21Z</time>
      </trkpt>
      <trkpt lat="44.62287" lon="6.52926">
        <ele>1063</ele>
        <time>2009-11-23T07:24:21Z</time>
      </trkpt>
      <trkpt lat="44.62249" lon="6.52847">
        <ele>1057</ele>
        <time>2009-11-23T07:24:21Z</time>
      </trkpt>
      <trkpt lat="44.6218" lon="6.5276">
        <ele>1049</ele>
        <time>2009-11-23T07:24:21Z</time>
      </trkpt>
      <trkpt lat="44.62109" lon="6.52679">
        <ele>1044</ele>
        <time>2009-11-23T07:24:21Z</time>
      </trkpt>
      <trkpt lat="44.62016" lon="6.52581">
        <ele>1055</ele>
        <time>2009-11-23T07:24:21Z</time>
      </trkpt>
      <trkpt lat="44.61958" lon="6.52517">
        <ele>1055</ele>
        <time>2009-11-23T07:24:21Z</time>
      </trkpt>
      <trkpt lat="44.61952" lon="6.52384">
        <ele>1070</ele>
        <time>2009-11-23T07:24:21Z</time>
      </trkpt>
      <trkpt lat="44.61942" lon="6.52336">
        <ele>1071</ele>
        <time>2009-11-23T07:24:21Z</time>
      </trkpt>
      <trkpt lat="44.61865" lon="6.52292">
        <ele>1048</ele>
        <time>2009-11-23T07:24:21Z</time>
      </trkpt>
      <trkpt lat="44.61812" lon="6.5221">
        <ele>1046</ele>
        <time>2009-11-23T07:24:21Z</time>
      </trkpt>
      <trkpt lat="44.61733" lon="6.52282">
        <ele>1010</ele>
        <time>2009-11-23T07:24:21Z</time>
      </trkpt>
      <trkpt lat="44.61742" lon="6.52207">
        <ele>1016</ele>
        <time>2009-11-23T07:24:21Z</time>
      </trkpt>
      <trkpt lat="44.61762" lon="6.52159">
        <ele>1017</ele>
        <time>2009-11-23T07:24:21Z</time>
      </trkpt>
      <trkpt lat="44.61777" lon="6.52119">
        <ele>1013</ele>
        <time>2009-11-23T07:24:21Z</time>
      </trkpt>
      <trkpt lat="44.61758" lon="6.52095">
        <ele>998</ele>
        <time>2009-11-23T07:24:21Z</time>
      </trkpt>
      <trkpt lat="44.6173" lon="6.52099">
        <ele>989</ele>
        <time>2009-11-23T07:24:21Z</time>
      </trkpt>
      <trkpt lat="44.61694" lon="6.52122">
        <ele>981</ele>
        <time>2009-11-23T07:24:21Z</time>
      </trkpt>
      <trkpt lat="44.61631" lon="6.52105">
        <ele>976</ele>
        <time>2009-11-23T07:24:21Z</time>
      </trkpt>
      <trkpt lat="44.61574" lon="6.52129">
        <ele>975</ele>
        <time>2009-11-23T07:24:21Z</time>
      </trkpt>
      <trkpt lat="44.61509" lon="6.5219">
        <ele>979</ele>
        <time>2009-11-23T07:24:21Z</time>
      </trkpt>
      <trkpt lat="44.61524" lon="6.52024">
        <ele>999</ele>
        <time>2009-11-23T07:24:21Z</time>
      </trkpt>
      <trkpt lat="44.61543" lon="6.5194">
        <ele>1006</ele>
        <time>2009-11-23T07:24:21Z</time>
      </trkpt>
      <trkpt lat="44.61544" lon="6.51912">
        <ele>1010</ele>
        <time>2009-11-23T07:24:21Z</time>
      </trkpt>
      <trkpt lat="44.61538" lon="6.51893">
        <ele>1013</ele>
        <time>2009-11-23T07:24:21Z</time>
      </trkpt>
      <trkpt lat="44.615" lon="6.51884">
        <ele>1014</ele>
        <time>2009-11-23T07:24:21Z</time>
      </trkpt>
      <trkpt lat="44.61462" lon="6.51875">
        <ele>1013</ele>
        <time>2009-11-23T07:24:21Z</time>
      </trkpt>
      <trkpt lat="44.61459" lon="6.51836">
        <ele>1016</ele>
        <time>2009-11-23T07:24:21Z</time>
      </trkpt>
      <trkpt lat="44.61481" lon="6.518">
        <ele>1020</ele>
        <time>2009-11-23T07:24:21Z</time>
      </trkpt>
      <trkpt lat="44.6148" lon="6.51759">
        <ele>1023</ele>
        <time>2009-11-23T07:24:21Z</time>
      </trkpt>
      <trkpt lat="44.61457" lon="6.51701">
        <ele>1029</ele>
        <time>2009-11-23T07:24:21Z</time>
      </trkpt>
      <trkpt lat="44.61419" lon="6.51651">
        <ele>1033</ele>
        <time>2009-11-23T07:24:21Z</time>
      </trkpt>
      <trkpt lat="44.61304" lon="6.51579">
        <ele>1042</ele>
        <time>2009-11-23T07:24:21Z</time>
      </trkpt>
      <trkpt lat="44.61172" lon="6.51516">
        <ele>1053</ele>
        <time>2009-11-23T07:24:21Z</time>
      </trkpt>
      <trkpt lat="44.61003" lon="6.51396">
        <ele>1073</ele>
        <time>2009-11-23T07:24:21Z</time>
      </trkpt>
      <trkpt lat="44.60895" lon="6.51347">
        <ele>1087</ele>
        <time>2009-11-23T07:24:21Z</time>
      </trkpt>
      <trkpt lat="44.60859" lon="6.51275">
        <ele>1091</ele>
        <time>2009-11-23T07:24:21Z</time>
      </trkpt>
      <trkpt lat="44.60806" lon="6.51132">
        <ele>1086</ele>
        <time>2009-11-23T07:24:21Z</time>
      </trkpt>
      <trkpt lat="44.60754" lon="6.51068">
        <ele>1083</ele>
        <time>2009-11-23T07:24:21Z</time>
      </trkpt>
      <trkpt lat="44.6068" lon="6.51016">
        <ele>1081</ele>
        <time>2009-11-23T07:24:21Z</time>
      </trkpt>
      <trkpt lat="44.60623" lon="6.50961">
        <ele>1084</ele>
        <time>2009-11-23T07:24:21Z</time>
      </trkpt>
      <trkpt lat="44.60592" lon="6.50896">
        <ele>1092</ele>
        <time>2009-11-23T07:24:21Z</time>
      </trkpt>
      <trkpt lat="44.60533" lon="6.50835">
        <ele>1098</ele>
        <time>2009-11-23T07:24:21Z</time>
      </trkpt>
      <trkpt lat="44.6044" lon="6.50626">
        <ele>1127</ele>
        <time>2009-11-23T07:24:21Z</time>
      </trkpt>
      <trkpt lat="44.60505" lon="6.5064">
        <ele>1132</ele>
        <time>2009-11-23T07:24:21Z</time>
      </trkpt>
      <trkpt lat="44.6057" lon="6.50692">
        <ele>1131</ele>
        <time>2009-11-23T07:24:21Z</time>
      </trkpt>
      <trkpt lat="44.60533" lon="6.50617">
        <ele>1142</ele>
        <time>2009-11-23T07:24:21Z</time>
      </trkpt>
      <trkpt lat="44.60453" lon="6.50513">
        <ele>1151</ele>
        <time>2009-11-23T07:24:21Z</time>
      </trkpt>
      <trkpt lat="44.60304" lon="6.50342">
        <ele>1162</ele>
        <time>2009-11-23T07:24:21Z</time>
      </trkpt>
      <trkpt lat="44.60193" lon="6.50204">
        <ele>1181</ele>
        <time>2009-11-23T07:24:21Z</time>
      </trkpt>
      <trkpt lat="44.60106" lon="6.5005">
        <ele>1195</ele>
        <time>2009-11-23T07:24:21Z</time>
      </trkpt>
      <trkpt lat="44.60056" lon="6.49888">
        <ele>1200</ele>
        <time>2009-11-23T07:24:21Z</time>
      </trkpt>
      <trkpt lat="44.60011" lon="6.49772">
        <ele>1207</ele>
        <time>2009-11-23T07:24:21Z</time>
      </trkpt>
      <trkpt lat="44.59978" lon="6.49508">
        <ele>1231</ele>
        <time>2009-11-23T07:24:21Z</time>
      </trkpt>
      <trkpt lat="44.60056" lon="6.49416">
        <ele>1260</ele>
        <time>2009-11-23T07:24:21Z</time>
      </trkpt>
      <trkpt lat="44.60045" lon="6.49339">
        <ele>1247</ele>
        <time>2009-11-23T07:24:21Z</time>
      </trkpt>
      <trkpt lat="44.6008" lon="6.49197">
        <ele>1257</ele>
        <time>2009-11-23T07:24:21Z</time>
      </trkpt>
      <trkpt lat="44.60061" lon="6.49167">
        <ele>1252</ele>
        <time>2009-11-23T07:24:21Z</time>
      </trkpt>
      <trkpt lat="44.60023" lon="6.49215">
        <ele>1243</ele>
        <time>2009-11-23T07:24:21Z</time>
      </trkpt>
      <trkpt lat="44.59923" lon="6.49232">
        <ele>1245</ele>
        <time>2009-11-23T07:24:21Z</time>
      </trkpt>
      <trkpt lat="44.59867" lon="6.49219">
        <ele>1242</ele>
        <time>2009-11-23T07:24:21Z</time>
      </trkpt>
      <trkpt lat="44.59801" lon="6.49261">
        <ele>1235</ele>
        <time>2009-11-23T07:24:21Z</time>
      </trkpt>
      <trkpt lat="44.59768" lon="6.49293">
        <ele>1238</ele>
        <time>2009-11-23T07:24:21Z</time>
      </trkpt>
      <trkpt lat="44.5976" lon="6.49321">
        <ele>1237</ele>
        <time>2009-11-23T07:24:21Z</time>
      </trkpt>
      <trkpt lat="44.59755" lon="6.4939">
        <ele>1238</ele>
        <time>2009-11-23T07:24:21Z</time>
      </trkpt>
      <trkpt lat="44.59754" lon="6.49469">
        <ele>1232</ele>
        <time>2009-11-23T07:24:21Z</time>
      </trkpt>
      <trkpt lat="44.59738" lon="6.49487">
        <ele>1231</ele>
        <time>2009-11-23T07:24:21Z</time>
      </trkpt>
      <trkpt lat="44.59737" lon="6.49505">
        <ele>1227</ele>
        <time>2009-11-23T07:24:21Z</time>
      </trkpt>
      <trkpt lat="44.59757" lon="6.4952">
        <ele>1221</ele>
        <time>2009-11-23T07:24:21Z</time>
      </trkpt>
      <trkpt lat="44.59699" lon="6.49572">
        <ele>1214</ele>
        <time>2009-11-23T07:24:21Z</time>
      </trkpt>
      <trkpt lat="44.59589" lon="6.49551">
        <ele>1218</ele>
        <time>2009-11-23T07:24:21Z</time>
      </trkpt>
      <trkpt lat="44.59635" lon="6.49652">
        <ele>1195</ele>
        <time>2009-11-23T07:24:21Z</time>
      </trkpt>
      <trkpt lat="44.59557" lon="6.49637">
        <ele>1192</ele>
        <time>2009-11-23T07:24:21Z</time>
      </trkpt>
      <trkpt lat="44.5948" lon="6.49647">
        <ele>1185</ele>
        <time>2009-11-23T07:24:21Z</time>
      </trkpt>
      <trkpt lat="44.59419" lon="6.49702">
        <ele>1177</ele>
        <time>2009-11-23T07:24:21Z</time>
      </trkpt>
      <trkpt lat="44.59399" lon="6.49767">
        <ele>1169</ele>
        <time>2009-11-23T07:24:21Z</time>
      </trkpt>
      <trkpt lat="44.59376" lon="6.49832">
        <ele>1162</ele>
        <time>2009-11-23T07:24:21Z</time>
      </trkpt>
      <trkpt lat="44.59345" lon="6.49886">
        <ele>1158</ele>
        <time>2009-11-23T07:24:21Z</time>
      </trkpt>
      <trkpt lat="44.59318" lon="6.49934">
        <ele>1150</ele>
        <time>2009-11-23T07:24:21Z</time>
      </trkpt>
      <trkpt lat="44.59234" lon="6.49953">
        <ele>1142</ele>
        <time>2009-11-23T07:24:21Z</time>
      </trkpt>
      <trkpt lat="44.59207" lon="6.49895">
        <ele>1149</ele>
        <time>2009-11-23T07:24:21Z</time>
      </trkpt>
      <trkpt lat="44.59174" lon="6.49873">
        <ele>1149</ele>
        <time>2009-11-23T07:24:21Z</time>
      </trkpt>
      <trkpt lat="44.5913" lon="6.49857">
        <ele>1148</ele>
        <time>2009-11-23T07:24:21Z</time>
      </trkpt>
      <trkpt lat="44.591" lon="6.49811">
        <ele>1154</ele>
        <time>2009-11-23T07:24:21Z</time>
      </trkpt>
      <trkpt lat="44.59043" lon="6.49775">
        <ele>1160</ele>
        <time>2009-11-23T07:24:21Z</time>
      </trkpt>
      <trkpt lat="44.59015" lon="6.4972">
        <ele>1170</ele>
        <time>2009-11-23T07:24:21Z</time>
      </trkpt>
      <trkpt lat="44.58947" lon="6.49693">
        <ele>1169</ele>
        <time>2009-11-23T07:24:21Z</time>
      </trkpt>
      <trkpt lat="44.58877" lon="6.4964">
        <ele>1168</ele>
        <time>2009-11-23T07:24:21Z</time>
      </trkpt>
      <trkpt lat="44.58749" lon="6.49561">
        <ele>1163</ele>
        <time>2009-11-23T07:24:21Z</time>
      </trkpt>
      <trkpt lat="44.58648" lon="6.49664">
        <ele>1147</ele>
        <time>2009-11-23T07:24:21Z</time>
      </trkpt>
      <trkpt lat="44.58549" lon="6.49616">
        <ele>1152</ele>
        <time>2009-11-23T07:24:21Z</time>
      </trkpt>
      <trkpt lat="44.58539" lon="6.4958">
        <ele>1156</ele>
        <time>2009-11-23T07:24:21Z</time>
      </trkpt>
      <trkpt lat="44.58376" lon="6.49471">
        <ele>1167</ele>
        <time>2009-11-23T07:24:21Z</time>
      </trkpt>
      <trkpt lat="44.58159" lon="6.49492">
        <ele>1147</ele>
        <time>2009-11-23T07:24:21Z</time>
      </trkpt>
      <trkpt lat="44.58038" lon="6.49477">
        <ele>1140</ele>
        <time>2009-11-23T07:24:21Z</time>
      </trkpt>
      <trkpt lat="44.57987" lon="6.49401">
        <ele>1140</ele>
        <time>2009-11-23T07:24:21Z</time>
      </trkpt>
      <trkpt lat="44.57889" lon="6.49331">
        <ele>1131</ele>
        <time>2009-11-23T07:24:21Z</time>
      </trkpt>
      <trkpt lat="44.57848" lon="6.49325">
        <ele>1127</ele>
        <time>2009-11-23T07:24:21Z</time>
      </trkpt>
      <trkpt lat="44.57674" lon="6.49223">
        <ele>1129</ele>
        <time>2009-11-23T07:24:21Z</time>
      </trkpt>
      <trkpt lat="44.57546" lon="6.4916">
        <ele>1118</ele>
        <time>2009-11-23T07:24:21Z</time>
      </trkpt>
      <trkpt lat="44.57472" lon="6.49155">
        <ele>1107</ele>
        <time>2009-11-23T07:24:21Z</time>
      </trkpt>
      <trkpt lat="44.57375" lon="6.49034">
        <ele>1101</ele>
        <time>2009-11-23T07:24:21Z</time>
      </trkpt>
      <trkpt lat="44.57286" lon="6.4888">
        <ele>1096</ele>
        <time>2009-11-23T07:24:21Z</time>
      </trkpt>
      <trkpt lat="44.57238" lon="6.48845">
        <ele>1087</ele>
        <time>2009-11-23T07:24:21Z</time>
      </trkpt>
      <trkpt lat="44.57176" lon="6.48812">
        <ele>1079</ele>
        <time>2009-11-23T07:24:21Z</time>
      </trkpt>
      <trkpt lat="44.57113" lon="6.48697">
        <ele>1073</ele>
        <time>2009-11-23T07:24:21Z</time>
      </trkpt>
      <trkpt lat="44.5698" lon="6.48593">
        <ele>1050</ele>
        <time>2009-11-23T07:24:21Z</time>
      </trkpt>
      <trkpt lat="44.57024" lon="6.48681">
        <ele>1042</ele>
        <time>2009-11-23T07:24:21Z</time>
      </trkpt>
      <trkpt lat="44.56973" lon="6.48661">
        <ele>1032</ele>
        <time>2009-11-23T07:24:21Z</time>
      </trkpt>
      <trkpt lat="44.56915" lon="6.48594">
        <ele>1029</ele>
        <time>2009-11-23T07:24:21Z</time>
      </trkpt>
      <trkpt lat="44.56909" lon="6.48496">
        <ele>1026</ele>
        <time>2009-11-23T07:24:21Z</time>
      </trkpt>
      <trkpt lat="44.5687" lon="6.48405">
        <ele>1019</ele>
        <time>2009-11-23T07:24:21Z</time>
      </trkpt>
      <trkpt lat="44.56797" lon="6.48321">
        <ele>1013</ele>
        <time>2009-11-23T07:24:21Z</time>
      </trkpt>
      <trkpt lat="44.56696" lon="6.48298">
        <ele>1001</ele>
        <time>2009-11-23T07:24:21Z</time>
      </trkpt>
      <trkpt lat="44.56601" lon="6.48316">
        <ele>985</ele>
        <time>2009-11-23T07:24:21Z</time>
      </trkpt>
      <trkpt lat="44.56534" lon="6.48352">
        <ele>974</ele>
        <time>2009-11-23T07:24:21Z</time>
      </trkpt>
      <trkpt lat="44.56595" lon="6.48533">
        <ele>969</ele>
        <time>2009-11-23T07:24:21Z</time>
      </trkpt>
      <trkpt lat="44.56601" lon="6.48609">
        <ele>961</ele>
        <time>2009-11-23T07:24:21Z</time>
      </trkpt>
      <trkpt lat="44.56619" lon="6.48676">
        <ele>957</ele>
        <time>2009-11-23T07:24:21Z</time>
      </trkpt>
      <trkpt lat="44.56659" lon="6.48745">
        <ele>953</ele>
        <time>2009-11-23T07:24:21Z</time>
      </trkpt>
      <trkpt lat="44.56657" lon="6.48792">
        <ele>945</ele>
        <time>2009-11-23T07:24:21Z</time>
      </trkpt>
      <trkpt lat="44.56706" lon="6.48871">
        <ele>940</ele>
        <time>2009-11-23T07:24:21Z</time>
      </trkpt>
      <trkpt lat="44.56755" lon="6.48995">
        <ele>932</ele>
        <time>2009-11-23T07:24:21Z</time>
      </trkpt>
      <trkpt lat="44.56809" lon="6.49068">
        <ele>934</ele>
        <time>2009-11-23T07:24:21Z</time>
      </trkpt>
      <trkpt lat="44.56745" lon="6.49202">
        <ele>917</ele>
        <time>2009-11-23T07:24:21Z</time>
      </trkpt>
      <trkpt lat="44.56743" lon="6.49249">
        <ele>911</ele>
        <time>2009-11-23T07:24:21Z</time>
      </trkpt>
      <trkpt lat="44.56684" lon="6.49207">
        <ele>902</ele>
        <time>2009-11-23T07:24:21Z</time>
      </trkpt>
      <trkpt lat="44.56647" lon="6.49251">
        <ele>892</ele>
        <time>2009-11-23T07:24:21Z</time>
      </trkpt>
      <trkpt lat="44.56656" lon="6.49312">
        <ele>889</ele>
        <time>2009-11-23T07:24:21Z</time>
      </trkpt>
      <trkpt lat="44.56696" lon="6.49378">
        <ele>889</ele>
        <time>2009-11-23T07:24:21Z</time>
      </trkpt>
      <trkpt lat="44.56649" lon="6.49475">
        <ele>876</ele>
        <time>2009-11-23T07:24:21Z</time>
      </trkpt>
      <trkpt lat="44.56634" lon="6.49515">
        <ele>874</ele>
        <time>2009-11-23T07:24:21Z</time>
      </trkpt>
      <trkpt lat="44.56566" lon="6.49598">
        <ele>873</ele>
        <time>2009-11-23T07:24:21Z</time>
      </trkpt>
      <trkpt lat="44.56546" lon="6.49713">
        <ele>870</ele>
        <time>2009-11-23T07:24:21Z</time>
      </trkpt>
    </trkseg>
  </trk>
</gpx>